Wind_Speed
17 17 15 14 13 12 11 13 14 15 17 16 18 20 20 20 22 22 21 21 21 20 21 23 23 24 24 25 24 24 25 26 26 27 27 27 27 27 26 27 27 27 26 25
16 14 13 12 15 16 16 16 16 17 18 17 18 20 20 21 22 22 21 21 23 22 21 22 23 23 24 24 25 25 25 25 26 26 27 27 27 27 27 26 27 27 26 26
12 11 14 17 19 19 18 16 15 17 19 18 19 21 21 21 23 22 23 23 23 22 21 22 23 22 23 24 25 25 25 26 26 27 27 27 26 26 26 27 27 28 28 27
13 15 18 18 18 17 16 15 15 18 20 18 19 21 22 21 22 22 22 23 23 22 22 23 23 23 23 23 23 25 26 27 27 27 27 26 25 26 26 27 27 27 27 27
14 17 17 16 15 15 15 16 17 19 19 18 17 17 20 23 23 21 21 21 22 22 23 23 24 23 23 24 25 26 27 28 28 28 26 25 25 25 25 25 26 26 26 27
16 16 16 16 16 17 15 16 16 17 17 18 17 20 22 24 23 21 21 21 22 22 23 24 23 24 25 25 26 27 27 27 27 26 26 25 25 25 26 26 26 26 26 27
15 15 17 17 16 16 16 16 15 16 17 19 18 21 24 23 23 22 21 21 21 23 24 24 24 25 26 26 26 26 26 26 25 25 26 26 26 26 25 26 26 26 26 26
14 15 15 16 16 16 16 16 16 16 16 18 18 21 25 25 24 23 23 23 22 23 24 24 25 27 27 27 27 27 27 26 26 26 27 27 27 26 26 26 26 26 26 26
16 16 16 15 16 16 15 16 15 16 16 17 18 19 21 21 21 23 24 24 24 25 25 25 26 26 27 27 27 27 26 26 27 28 27 27 27 26 26 26 27 26 26 26
15 15 16 15 15 15 15 15 16 17 17 18 17 19 21 22 21 22 23 24 25 25 25 25 25 25 26 26 26 26 26 26 27 28 28 27 27 27 27 26 25 25 25 24
15 15 14 15 16 16 16 16 16 17 17 17 19 21 21 22 22 21 22 23 23 23 24 24 25 26 26 26 26 27 27 27 27 27 26 27 27 26 26 25 24 24 24 23
17 16 16 14 14 15 16 15 16 18 18 18 20 23 21 22 21 21 22 22 23 23 24 25 26 25 25 25 26 26 26 26 26 26 26 26 26 25 24 24 23 23 23 23
17 17 16 15 15 15 15 14 15 17 18 18 20 24 23 21 21 21 21 22 23 22 23 24 25 25 25 25 25 25 25 25 25 25 24 24 24 24 23 23 22 21 21 20
17 17 16 15 15 14 13 13 15 17 18 19 20 22 22 22 21 21 21 22 23 23 22 23 23 23 23 24 23 23 23 23 23 22 22 22 21 21 21 20 19 19 18 17
15 16 16 15 14 13 13 14 15 17 18 19 20 21 22 23 21 21 21 21 21 21 22 22 22 21 21 21 21 21 21 21 20 19 19 18 19 19 18 17 17 17 17 16
14 15 14 12 12 12 13 14 15 16 17 19 20 21 21 21 20 19 19 20 20 21 21 21 21 21 20 20 20 20 20 20 19 18 18 18 17 16 15 15 15 14 13 13
12 13 12 12 11 13 13 14 14 16 17 18 19 19 19 20 19 19 19 19 19 19 19 19 20 20 20 19 19 19 18 17 16 16 16 15 15 14 13 12 12 11 11 10
12 12 11 11 11 12 14 13 15 16 17 17 18 18 18 18 18 18 18 18 18 18 17 17 18 18 17 17 17 16 15 14 14 14 13 13 13 12 11 10 10 10 9 9
10 10 10 10 11 13 13 13 14 14 14 14 15 15 15 15 16 17 17 17 16 16 16 16 16 16 16 15 14 14 13 13 13 13 12 12 11 10 8 7 8 8 7 7
8 9 9 10 10 11 12 12 13 13 14 13 13 14 14 15 16 16 16 16 15 15 15 14 14 14 13 13 12 12 12 12 11 11 10 9 9 8 7 6 6 5 5 5
6 7 8 8 10 11 11 11 12 12 13 13 13 14 14 14 15 15 15 14 14 14 13 13 12 11 10 11 10 9 9 9 8 8 8 8 8 6 6 5 5 5 4 5
6 7 7 8 10 10 9 10 10 11 11 12 13 13 13 13 13 13 13 13 12 12 11 11 10 9 9 9 8 8 8 8 6 6 6 6 6 5 5 5 5 5 5 5
7 7 7 8 8 8 8 9 9 9 10 11 11 11 12 12 11 11 11 11 10 10 9 9 9 8 8 8 8 8 7 7 6 5 5 5 4 4 5 5 5 5 6 5
7 6 7 7 7 7 7 7 8 8 9 10 10 10 10 10 9 10 9 9 8 8 8 7 7 7 7 6 6 6 6 6 5 5 4 4 3 4 4 5 6 6 6 5
5 5 6 6 6 5 6 6 7 7 8 8 8 7 8 8 8 8 8 8 7 6 7 7 6 6 6 5 5 5 5 5 4 4 4 4 5 5 5 5 5 5 5 6
4 4 5 4 4 5 5 5 6 6 6 6 6 7 7 6 7 7 7 7 7 6 6 6 6 6 6 6 6 5 5 5 5 4 5 5 5 5 5 5 5 5 6 6
Wind_Direction
196 197 195 196 192 192 216 220 220 235 249 248 247 253 257 263 270 274 276 278 279 278 282 283 285 286 286 286 287 289 288 287 286 284 284 282 279 277 274 275 275 276 275 274
191 192 188 194 198 199 208 216 218 229 245 249 252 256 262 265 269 272 275 277 278 283 281 283 284 285 286 288 288 288 288 288 286 285 284 283 279 276 275 274 272 273 273 274
183 198 203 204 208 207 204 209 215 231 247 250 253 260 264 265 269 273 274 277 281 280 282 285 283 285 287 289 290 288 287 287 286 285 285 283 280 279 277 276 275 272 273 274
194 206 213 212 210 208 208 212 218 235 247 253 256 260 267 271 273 272 272 274 276 280 281 283 285 286 290 291 292 291 289 288 287 288 288 283 282 281 280 279 278 276 275 275
206 218 216 213 209 208 211 219 226 234 248 253 258 263 267 270 275 273 271 272 277 282 283 285 286 287 289 292 293 292 291 289 288 288 288 286 285 285 283 281 281 280 278 276
208 217 215 212 210 212 214 222 231 234 244 250 254 259 264 268 272 273 275 276 280 285 288 289 287 287 290 292 292 292 291 290 289 288 289 289 287 285 284 283 282 282 281 278
214 218 219 217 215 217 217 221 227 236 243 251 256 257 261 269 274 277 281 282 281 285 288 289 289 289 290 292 292 292 293 293 293 292 290 289 289 287 285 284 283 282 281 280
217 224 226 223 219 222 222 220 231 244 251 256 254 254 258 264 274 283 284 282 283 287 290 291 290 289 290 292 292 293 294 294 294 293 292 290 289 290 287 285 285 284 283 282
211 219 224 228 224 224 224 224 235 252 261 263 258 260 264 265 272 279 280 282 283 285 288 290 291 289 291 293 293 294 294 295 293 293 293 291 291 290 291 289 287 287 286 283
216 219 218 222 225 224 226 229 233 242 257 264 266 265 269 275 278 279 279 280 281 282 286 290 292 293 294 295 294 295 295 295 294 292 291 292 291 290 290 290 288 286 285 284
222 225 223 220 221 225 228 231 239 247 253 265 275 277 280 274 278 281 283 284 284 284 286 289 292 293 294 295 296 296 294 293 294 293 292 291 290 289 288 286 285 285 284 284
224 224 223 225 228 229 235 233 241 248 253 260 274 281 281 279 279 283 285 286 287 286 288 289 290 292 293 295 297 298 296 294 295 295 294 293 291 289 288 287 286 285 285 285
224 226 224 223 229 231 235 235 244 254 256 259 268 275 279 282 285 285 286 288 290 289 289 290 291 292 293 295 296 298 298 298 297 296 295 295 293 291 288 288 288 286 286 287
223 224 228 229 230 233 238 241 247 252 257 259 264 273 278 284 286 287 288 290 292 293 291 292 294 295 296 296 297 298 298 300 302 302 300 296 296 296 292 288 287 287 288 288
227 226 229 230 228 233 245 249 250 251 259 268 272 275 280 285 288 289 289 291 293 293 293 294 296 296 297 298 299 301 302 304 304 304 304 302 302 301 297 292 290 289 287 288
230 226 227 229 231 231 241 251 254 258 265 272 276 278 278 283 290 291 290 292 295 295 294 295 296 296 297 298 299 302 304 305 304 305 306 307 307 306 305 299 296 296 295 292
227 224 222 220 231 244 247 252 257 263 265 268 274 279 283 287 290 291 293 295 296 295 296 296 297 297 297 299 301 303 304 303 304 306 309 311 312 311 309 307 306 305 302 299
225 223 225 227 230 241 249 254 261 266 268 270 277 282 287 290 294 295 297 299 299 296 295 296 297 297 298 300 302 304 305 306 306 308 310 312 314 315 312 311 310 309 307 306
222 223 231 238 243 242 254 261 266 271 276 279 282 285 291 296 296 299 304 305 303 299 297 297 300 300 301 301 302 303 304 306 309 313 316 319 320 319 317 318 319 317 316 317
213 220 230 238 244 254 264 268 273 277 280 285 291 294 298 299 301 303 307 307 306 305 304 303 304 305 303 302 302 303 307 308 311 315 321 326 326 325 325 328 330 332 334 334
219 227 237 244 251 254 264 270 277 279 287 293 296 297 300 301 304 307 307 309 308 309 308 308 309 310 310 311 314 314 312 315 318 320 323 327 336 341 344 349 353 356 353 349
232 241 248 255 264 263 266 272 278 284 293 299 300 300 304 306 309 312 313 313 312 313 313 315 315 313 317 322 323 323 320 316 321 330 336 340 348 355 351 353 358 2 5 8
242 246 250 258 265 272 274 275 283 290 300 304 305 310 312 313 314 316 319 319 317 316 319 321 321 320 321 324 328 331 327 322 325 335 343 350 353 355 358 4 11 14 20 30
255 258 264 265 268 272 275 285 288 297 305 308 309 312 321 323 323 324 325 328 327 326 328 332 333 332 330 332 337 341 342 345 348 357 358 357 5 15 27 32 37 35 34 36
256 257 268 266 262 267 280 288 300 307 314 317 317 321 330 336 338 336 335 340 341 342 346 352 356 359 2 3 1 358 358 0 5 17 26 34 37 36 34 36 39 38 38 42
268 275 277 271 256 270 287 296 306 312 321 327 329 332 339 346 353 355 358 2 2 5 10 16 21 25 26 24 21 20 25 33 42 47 50 49 42 41 39 40 44 47 50 53
Height
5830 5835 5838 5842 5846 5850 5855 5857 5860 5861 5861 5862 5861 5861 5861 5861 5861 5860 5860 5859 5859 5859 5859 5858 5857 5857 5855 5854 5852 5851 5849 5848 5847 5845 5844 5843 5842 5841 5840 5840 5839 5839 5839 5839
5830 5834 5838 5842 5845 5848 5852 5856 5858 5860 5859 5860 5859 5858 5859 5859 5858 5856 5855 5855 5854 5854 5854 5853 5852 5851 5850 5849 5847 5846 5844 5843 5841 5839 5838 5837 5836 5835 5834 5834 5834 5833 5833 5833
5830 5835 5837 5839 5842 5845 5849 5853 5856 5857 5856 5857 5856 5855 5855 5855 5853 5853 5852 5852 5850 5850 5849 5849 5848 5847 5846 5844 5842 5841 5839 5838 5836 5834 5832 5831 5830 5829 5829 5828 5828 5827 5827 5827
5829 5832 5834 5837 5840 5843 5847 5850 5853 5854 5853 5853 5854 5852 5851 5850 5850 5848 5848 5847 5846 5846 5845 5844 5843 5842 5841 5839 5837 5836 5834 5832 5831 5829 5827 5825 5824 5823 5822 5822 5821 5820 5820 5820
5828 5830 5832 5835 5839 5841 5844 5847 5849 5850 5850 5851 5850 5849 5849 5846 5845 5844 5844 5843 5842 5842 5840 5840 5838 5837 5836 5835 5833 5831 5829 5827 5825 5823 5821 5819 5818 5817 5816 5815 5815 5814 5813 5813
5826 5828 5830 5833 5836 5838 5841 5844 5845 5846 5846 5847 5847 5846 5845 5842 5840 5840 5840 5838 5837 5838 5836 5834 5833 5832 5831 5830 5828 5825 5823 5821 5819 5817 5815 5813 5812 5811 5810 5809 5808 5807 5806 5806
5823 5826 5828 5830 5833 5835 5838 5840 5842 5842 5843 5843 5844 5842 5840 5837 5836 5836 5835 5833 5833 5833 5832 5831 5829 5828 5826 5824 5822 5820 5817 5815 5813 5811 5809 5808 5806 5804 5803 5802 5801 5800 5800 5799
5821 5824 5825 5827 5830 5833 5834 5837 5839 5840 5840 5839 5839 5837 5835 5833 5833 5832 5831 5830 5829 5829 5827 5826 5824 5822 5820 5818 5816 5814 5812 5810 5807 5805 5803 5801 5799 5798 5796 5795 5794 5793 5792 5792
5818 5821 5823 5825 5827 5830 5832 5833 5835 5836 5835 5835 5835 5832 5829 5828 5828 5828 5828 5827 5826 5824 5823 5821 5819 5817 5815 5812 5810 5808 5806 5803 5801 5799 5796 5794 5793 5791 5789 5788 5787 5786 5785 5785
5815 5818 5819 5822 5824 5827 5829 5831 5831 5832 5831 5831 5831 5829 5825 5824 5824 5824 5824 5822 5821 5819 5818 5816 5813 5811 5809 5807 5805 5802 5800 5797 5794 5792 5790 5788 5786 5784 5783 5782 5780 5779 5778 5777
5813 5815 5817 5819 5821 5823 5826 5827 5827 5828 5828 5829 5827 5826 5821 5820 5820 5820 5819 5817 5815 5813 5812 5810 5808 5806 5804 5802 5799 5796 5794 5791 5788 5785 5783 5781 5779 5778 5776 5775 5774 5773 5772 5771
5810 5812 5814 5817 5818 5820 5822 5823 5825 5825 5825 5825 5824 5824 5818 5817 5816 5815 5814 5812 5810 5808 5806 5804 5802 5800 5798 5796 5793 5790 5788 5785 5782 5779 5777 5775 5773 5771 5770 5769 5768 5767 5766 5765
5807 5809 5811 5814 5817 5817 5818 5819 5820 5821 5821 5821 5820 5820 5815 5813 5812 5811 5810 5808 5805 5802 5801 5799 5797 5795 5792 5790 5787 5785 5782 5779 5776 5774 5771 5768 5766 5765 5763 5762 5761 5761 5760 5759
5803 5806 5809 5811 5812 5813 5814 5816 5817 5818 5817 5816 5816 5814 5811 5810 5808 5806 5804 5803 5800 5798 5796 5794 5791 5789 5787 5784 5782 5779 5777 5774 5771 5768 5765 5763 5761 5759 5758 5757 5756 5755 5754 5753
5801 5803 5805 5807 5809 5811 5812 5813 5813 5813 5813 5812 5811 5809 5807 5806 5803 5801 5800 5798 5796 5793 5791 5789 5786 5784 5782 5779 5777 5774 5772 5769 5767 5764 5761 5759 5757 5755 5754 5752 5751 5750 5749 5748
5798 5800 5802 5804 5805 5807 5809 5809 5809 5809 5809 5807 5805 5804 5802 5800 5798 5796 5795 5794 5791 5789 5786 5784 5782 5779 5777 5775 5772 5770 5767 5765 5763 5761 5758 5756 5754 5751 5750 5749 5748 5746 5745 5744
5796 5798 5800 5802 5804 5805 5806 5805 5805 5805 5804 5803 5801 5800 5798 5796 5794 5793 5791 5789 5787 5784 5781 5779 5777 5775 5773 5770 5768 5766 5764 5762 5759 5757 5755 5753 5751 5749 5747 5746 5744 5743 5742 5741
5794 5796 5798 5799 5801 5802 5804 5802 5802 5801 5800 5799 5798 5796 5794 5793 5791 5789 5787 5785 5782 5780 5777 5775 5773 5771 5769 5766 5764 5763 5761 5759 5756 5755 5753 5751 5748 5746 5745 5743 5742 5741 5739 5739
5792 5794 5796 5797 5798 5798 5799 5799 5798 5797 5796 5795 5794 5792 5791 5790 5787 5785 5783 5781 5778 5776 5774 5772 5770 5767 5765 5763 5761 5759 5757 5756 5754 5752 5750 5748 5746 5744 5743 5741 5740 5739 5738 5737
5791 5793 5795 5795 5795 5796 5797 5796 5795 5796 5793 5792 5791 5790 5788 5786 5784 5782 5780 5777 5775 5772 5770 5768 5766 5764 5762 5760 5758 5756 5755 5753 5752 5750 5748 5747 5745 5743 5742 5740 5739 5738 5737 5736
5791 5791 5792 5792 5793 5792 5793 5793 5793 5793 5792 5790 5788 5787 5785 5783 5782 5779 5776 5774 5772 5769 5767 5765 5763 5761 5759 5757 5755 5754 5752 5751 5750 5748 5747 5746 5744 5742 5741 5740 5738 5737 5736 5735
5790 5791 5791 5791 5791 5793 5791 5791 5791 5790 5788 5787 5785 5783 5782 5780 5778 5776 5773 5771 5769 5767 5765 5763 5761 5759 5757 5755 5754 5752 5751 5749 5748 5747 5746 5745 5744 5742 5741 5740 5739 5738 5736 5735
5789 5790 5790 5790 5791 5790 5789 5789 5788 5787 5786 5784 5782 5780 5779 5777 5775 5773 5771 5769 5767 5765 5763 5761 5759 5757 5755 5754 5753 5751 5750 5749 5747 5746 5746 5745 5744 5743 5741 5740 5739 5738 5737 5736
5788 5788 5789 5788 5788 5788 5788 5787 5786 5785 5784 5782 5780 5779 5777 5775 5773 5771 5768 5766 5764 5763 5761 5759 5758 5756 5755 5753 5752 5751 5750 5748 5747 5746 5746 5745 5744 5743 5742 5741 5740 5739 5738 5738
5787 5787 5787 5787 5787 5786 5786 5785 5784 5783 5782 5780 5779 5777 5775 5773 5771 5769 5767 5765 5763 5761 5760 5759 5757 5756 5755 5753 5752 5751 5750 5749 5748 5747 5746 5746 5745 5744 5743 5742 5741 5741 5740 5739
5786 5787 5787 5786 5786 5786 5785 5784 5783 5782 5781 5779 5778 5776 5774 5772 5770 5768 5766 5765 5763 5762 5760 5759 5758 5757 5756 5754 5753 5752 5751 5749 5749 5748 5747 5747 5746 5745 5745 5744 5743 5742 5741 5740